Preview of NWS' New Version of Forecast
This preview is not operational and should not be used for support decisions.
Latest weather observations around

Wichita - Wichita Dwight D. Eisenhower National Airport (KICT)

Using English Units (Switch to International System of Units)
Date/ Time (CDT) Wind (mph) Vis. (mi) Weather Sky Cond. Temp (°F) Rel. Humidity Wind Chill (°F) Heat Index (°F) Pressure Precip. (in)
Air Dwpt 6 hour Altimeter (inHg) Sea level (inHg) 1 hr 3 hr 6 hr
Max Min
Jun 19 14:53 W 8 10 Mostly Cloudy SCT034 BKN055 78 63     60%   78 29.78 29.74      
Jun 19 13:53 NW 3 10 Cloudy SCT025 OVC050 77 62     60%   77 29.79 29.75      
Jun 19 13:51 NW 3 10 Cloudy SCT025 OVC050 77 63     61%   77 29.79        
Jun 19 12:53 NNW 6 10 Cloudy BKN025 OVC040 76 63     64%   76 29.8 29.76      
Jun 19 11:53 N 3 10 Cloudy BKN020 BKN027 OVC037 73 63     71%   73 29.8 29.77      
Jun 19 10:53 NNW 6 10 Cloudy SCT020 BKN025 OVC035 73 63     71%   73 29.81 29.77      
Jun 19 09:53 N 10 10 Mostly Cloudy FEW010 BKN015 BKN035 BKN200 71 62     73%   71 29.82 29.78      
Jun 19 09:29 N 10 10 Mostly Cloudy FEW008 SCT015 BKN040 BKN130 BKN200 70 63     78%     29.81        
Jun 19 08:53 N 10 10 Mostly Cloudy SCT008 BKN015 BKN130 BKN200 69 63     81%     29.8 29.77      
Jun 19 07:53 NNW 8 10 Cloudy BKN007 OVC018 67 63     87%     29.8 29.77      
Jun 19 06:53 WNW 5 6 Fog/Mist BKN006 OVC045 67 64     90%     29.81 29.78     0
Jun 19 06:38 WSW 5 6 Fog/Mist BKN004 OVC046 66 64     93%     29.8        
Jun 19 05:53 N 9 10 Cloudy SCT039 BKN130 OVC150 67 64     90%     29.76 29.73      
Jun 19 04:53 N 8 10 Mostly Cloudy BKN039 67 64     90%     29.77 29.73 0    
Jun 19 03:53 NE 10 10 Light Rain SCT011 BKN060 BKN120 OVC140 67 63     87%     29.73 29.69 0 0  
Jun 19 03:35 E 7 10 Light Rain SCT011 BKN060 BKN120 OVC140 67 63     87%     29.75   0    
Jun 19 02:53 SW 3 10 Thunderstorms FEW015 BKN038 BKN110 OVC140 67 64     90%     29.79 29.75      
Jun 19 02:45 Calm 10 Thunderstorms FEW015 BKN038 BKN110 OVC140 67 63     87%     29.79        
Jun 19 01:53 E 3 10 Cloudy BKN039 BKN110 OVC150 67 63     87%     29.81 29.77      
Jun 19 00:53 E 3 10 Cloudy BKN042 OVC049 68 64     87%     29.84 29.8      
Jun 18 23:53 E 8 10 Cloudy BKN043 BKN080 OVC130 68 63     84%     29.81 29.78      
Jun 18 22:53 NE 7 10 Mostly Cloudy SCT041 BKN060 BKN080 68 63     84%     29.84 29.8      
Jun 18 21:53 NNE 11 10 Cloudy OVC060 69 64     84%     29.83 29.79      
Jun 18 20:53 NE 8 10 Mostly Cloudy BKN065 BKN085 BKN250 69 64     84%     29.84 29.8      
Jun 18 19:53 E 7 10 Mostly Cloudy SCT055 BKN070 BKN200 70 65     84%     29.84 29.81      
Jun 18 18:53 ENE 9 10 Mostly Cloudy FEW010 BKN055 BKN100 BKN150 69 65     87%     29.84 29.81 0   1
Jun 18 18:32 NNW 5 10 Mostly Cloudy SCT027 BKN100 69 65     87%     29.81   0    
Jun 18 18:03 SSE 7 10 Thunderstorms and Rain FEW015 SCT027 BKN045 BKN150 68 65     90%     29.84   0    
Jun 18 17:53 E 9 0.75 Thunderstorms and Rain SCT024 BKN047 OVC100 68 65     90%     29.83 29.8 0    
Jun 18 17:41 SE 11 0.75 Thunderstorms and Heavy Rain SCT016 BKN028 OVC044 69 65     87%     29.84   0    
Jun 18 17:39 SSE 9 1 Thunderstorms and Heavy Rain FEW016 BKN044 OVC050 69 65     87%     29.84   0    
Jun 18 17:05 NE 16 8 Thunderstorms and Rain BKN041 BKN055 69 65     87%     29.82   0    
Jun 18 16:53   2 Thunderstorms and Heavy Rain SCT035 BKN043 OVC070 68 65     90%     29.82 29.78 0    
Jun 18 16:27   2 Thunderstorms and Heavy Rain BKN045 OVC055 71 65     81%   72 29.85   0    
Jun 18 15:53 N 8 10 Thunderstorms BKN043 BKN050 BKN070 77 63     62%   77 29.82 29.78 0 0  
Jun 18 15:18 SE 11 10 Thunderstorms and Rain FEW039 BKN048 BKN060 82 66     58%   84 29.84   0    
Jun 18 14:53 ESE 8 10 Partly Cloudy SCT035 SCT120 SCT180 81 66     61%   83 29.86 29.82      
Jun 18 13:53 S 10 10 Mostly Cloudy SCT026 SCT034 SCT120 BKN160 BKN200 82 66     58%   84 29.9 29.85      
Jun 18 12:53 SSE 9 10 Mostly Cloudy FEW040 FEW120 SCT160 BKN200 79 67     67%   80 29.92 29.88      
Jun 18 11:53 ESE 6 10 Mostly Cloudy FEW040 SCT120 BKN160 BKN200 77 66     69%   78 29.93 29.89      
Jun 18 10:53 Calm 10 Cloudy SCT120 BKN160 OVC200 76 66     71%   77 29.95 29.91      
Jun 18 09:53 Calm 10 Cloudy SCT120 BKN160 OVC200 76 65     69%   76 29.95 29.91      
Jun 18 08:53 Calm 10 Cloudy SCT120 BKN160 OVC220 76 65     69%   76 29.94 29.9      
Jun 18 07:53 Calm 10 Cloudy FEW050 SCT120 SCT160 OVC220 72 66     82%   73 29.94 29.89      
Jun 18 06:53 N 3 10 Mostly Cloudy SCT050 SCT120 BKN180 BKN220 71 65     81%   72 29.92 29.87      
Jun 18 05:53 Calm 10 Partly Cloudy SCT060 SCT120 SCT250 69 64     84%     29.91 29.87      
Jun 18 04:53 SW 5 10 Mostly Cloudy BKN060 BKN120 BKN250 69 64     84%     29.93 29.89      
Jun 18 03:53 W 6 10 Mostly Cloudy FEW065 SCT150 BKN250 69 64     84%     29.94 29.9      
Jun 18 02:53 S 7 10 Mostly Cloudy FEW065 SCT150 BKN200 BKN250 70 65     84%     29.94 29.89      
Jun 18 01:53 SSE 5 10 Mostly Cloudy FEW065 SCT150 BKN200 BKN250 71 65     81%   72 29.96 29.91      
Jun 18 00:53 SSE 3 10 Mostly Cloudy FEW065 SCT150 BKN200 BKN250 72 65     79%   73 29.96 29.91      
Jun 17 23:53 SW 5 10 Mostly Cloudy FEW065 SCT150 BKN200 BKN250 73 65     76%   74 29.97 29.93      
Jun 17 22:53 SE 7 10 Partly Cloudy FEW065 SCT150 SCT200 75 64     69%   75 29.95 29.91      
Jun 17 21:53 SSE 3 10 Clear CLR 76 64     67%   76 29.91 29.88      
Jun 17 20:53 SE 8 10 Partly Cloudy SCT060 SCT200 78 64     62%   79 29.88 29.84      
Jun 17 19:53 SE 7 10 Partly Cloudy FEW060 SCT200 81 62     53%   82 29.87 29.83      
Jun 17 18:53 S 5 10 Partly Cloudy FEW060 SCT200 84 61     46%   84 29.89 29.85      
Jun 17 17:53 E 7 10 Partly Cloudy FEW055 SCT080 SCT200 83 61     48%   83 29.89 29.85      
Jun 17 16:53 ESE 6 10 Mostly Cloudy BKN055 BKN080 BKN200 83 62     49%   84 29.91 29.87      
Jun 17 15:53 N 5 10 Partly Cloudy SCT055 SCT220 85 62     46%   86 29.92 29.88      
Jun 17 14:53 NE 3 10 Partly Cloudy SCT055 SCT220 84 60     44%   84 29.93 29.89      
Jun 17 13:53 NE 6 10 Partly Cloudy SCT050 SCT060 SCT220 84 62     48%   85 29.94 29.91      
Jun 17 12:53 NE 3 10 Partly Cloudy SCT043 SCT220 83 63     51%   84 29.96 29.92      
Jun 17 11:53 NE 3 10 Mostly Clear FEW075 FEW180 FEW250 81 62     53%   82 29.96 29.92      
Jun 17 10:53 Calm 10 Mostly Clear FEW070 FEW180 FEW250 78 63     60%   78 29.97 29.93      
Jun 17 09:53 Calm 10 Mostly Clear FEW180 FEW250 75 63     66%   75 29.96 29.92      
Jun 17 08:53 Calm 10 Partly Cloudy FEW180 SCT250 73 66     79%   74 29.95 29.92      
Jun 17 07:53 Calm 10 Partly Cloudy FEW020 FEW120 SCT180 SCT250 68 64     87%     29.94 29.91      
Jun 17 06:53 Calm 10 Mostly Cloudy FEW140 SCT180 BKN250 64 62     93%     29.93 29.89      
Jun 17 05:53 Calm 10 Mostly Cloudy FEW200 BKN250 63 60     90%     29.91 29.88      
Jun 17 04:53 NW 5 10 Clear CLR 65 62     90%     29.9 29.87      
Jun 17 03:53 N 5 10 Clear CLR 67 63     87%     29.89 29.85      
Jun 17 02:53 NNW 6 10 Clear CLR 66 63     90%     29.89 29.85      
Jun 17 01:53 Calm 10 Mostly Cloudy SCT200 BKN250 67 63     87%     29.89 29.85      
Jun 17 00:53 ENE 3 10 Clear   70 64     81%     29.9 29.86      
Jun 16 23:53 ENE 3 10 Mostly Cloudy SCT200 BKN250 69 64     84%     29.9 29.87      
Jun 16 22:53 NNE 3 10 Partly Cloudy SCT200 70 64     81%     29.89 29.85      
Jun 16 21:53 NNW 3 10 Partly Cloudy SCT150 SCT200 71 63     76%   71 29.88 29.84      
Jun 16 20:53 Calm 10 Partly Cloudy SCT200 SCT250 71 64     79%   72 29.86 29.83      
Jun 16 19:53 W 6 10 Mostly Cloudy SCT120 SCT150 BKN200 BKN250 71 66     84%   72 29.86 29.83      
Jun 16 18:53 S 3 10 Mostly Cloudy SCT120 BKN150 BKN220 73 66     79%   74 29.85 29.82     0
Jun 16 17:53 SSW 5 10 Mostly Cloudy FEW070 SCT150 BKN200 72 66     82%   73 29.87 29.84 0    
Jun 16 17:10 SW 6 10 Thunderstorms and Rain FEW070 OVC100 72 65     79%   73 29.86   0    
Jun 16 16:53 Calm 10 Light Rain FEW032 SCT070 BKN100 BKN150 BKN220 71 64     79%   72 29.86 29.83 0    
Jun 16 16:28 SSW 9 10 Thunderstorms SCT036 BKN100 BKN140 BKN180 BKN220 75 61     62%   75 29.89        
Jun 16 15:53 SSW 9 10 Mostly Cloudy FEW050 BKN140 BKN180 BKN220 76 64     67%   76 29.86 29.83      
Jun 16 14:53 S 10 10 Mostly Cloudy FEW050 BKN140 BKN180 BKN220 76 64     67%   76 29.89 29.85      
May 14 23:23   1.75 Thunderstorms and Heavy Rain and Fog/Mist SCT046 BKN075 BKN110 OVC150 68 66     93%     29.85   0    
May 14 17:53   10 Partly Cloudy FEW060 SCT085 SCT200 89 69     52%   94 29.74 29.69      
May 13 11:53 S 14 10 Clear   81 68     65%   84 29.92 29.88      
Jun 11 07:53   10 Clear CLR 74 66     76%   75 29.78 29.72      
Jun 10 12:53   10 Partly Cloudy SCT031 84 69     61%   88 29.76 29.71      
Jun 09 14:53 SSE 16 10 Partly Cloudy SCT050 84 62     48%   85 29.83 29.79      
Jun 09 11:53 SSE 14 10 Clear CLR 81 63     54%   82 29.88 29.85      
Jun 09 02:53 S 7 10 Partly Cloudy FEW070 SCT250 63 56     78%     29.89 29.85      
Jun 08 12:53 SSW 10 10 Partly Cloudy SCT200 SCT250 77 55     47%   77 30.02 29.99      
Jun 08 06:53 SE 3 10 Mostly Cloudy SCT200 BKN250 61 54     78%     30.06 30.02      
Jun 05 21:53 Calm 10 Mostly Clear FEW200 75 61     62%   75 29.9 29.86